Location: Newark
(39.3539°N, 74.7750°W)
Time: 14:52:35
(UTC+00:00)

ISS - Visible Passes

Search period start: 29 September 2020 00:00
Search period end: 09 October 2020 00:00
Orbit: 419 x 421 km, 51.6° (Epoch: 30 September)

Date Brightness Start Highest point End Pass type
(mag) Time Alt. Az. Time Alt. Az. Time Alt. Az.
29 Sep -1.2 00:29:25 10° NNW 00:31:00 13° NNE 00:31:00 13° NNE visible
29 Sep -1.2 23:42:26 10° NNW 23:43:37 11° N 23:44:46 10° NNE visible
30 Sep -0.4 01:18:18 10° NW 01:18:31 11° NNW 01:18:31 11° NNW visible
01 Oct -1.6 00:31:15 10° NNW 00:33:04 19° N 00:33:04 19° N visible
01 Oct -1.6 23:44:14 10° NNW 23:46:26 16° NNE 23:47:39 14° NE visible
02 Oct -0.4 01:20:22 10° NW 01:20:38 12° NW 01:20:38 12° NW visible
03 Oct -2.2 00:33:10 10° NW 00:35:16 31° NNW 00:35:16 31° NNW visible
03 Oct -2.6 23:46:02 10° NW 23:49:03 29° NNE 23:49:57 25° ENE visible
04 Oct -0.2 01:22:48 10° WNW 01:22:56 11° WNW 01:22:56 11° WNW visible
04 Oct -2.1 22:58:56 10° NNW 23:01:36 21° NNE 23:04:15 10° ENE visible
05 Oct -2.4 00:35:20 10° WNW 00:37:42 40° WNW 00:37:42 40° WNW visible
05 Oct -3.9 23:48:00 10° NW 23:51:23 77° NE 23:52:34 37° ESE visible
06 Oct -3.3 23:00:46 10° NW 23:04:02 45° NNE 23:07:17 10° ESE visible
07 Oct -1.4 00:38:11 10° W 00:40:34 19° SW 00:40:34 19° SW visible
07 Oct -2.2 23:50:23 10° WNW 23:53:27 32° SW 23:55:42 15° SSE visible
08 Oct -3.2 23:02:53 10° WNW 23:06:12 58° SW 23:09:29 10° SE visible
